Location: Plainartige
(45.6866°N, 1.7993°E)
Time: 04:41:18
(UTC+00:00)

Oscar 19 - Pass Details

Date: 06 July 2022
Orbit: 773 x 790 km, 98.8° (Epoch: 14 August)

Event Time Altitude Azimuth Distance (km) Brightness Sun altitude
Rises 02:43:13 0° 23° (NNE) 3,261 15.5 -12.0°
Reaches altitude 10° 02:45:47 10° 33° (NNE) 2,328 14.6 -11.7°
Maximum altitude 02:50:21 32° 96° (E) 1,309 12.2 -11.2°
Drops below altitude 10° 02:54:53 10° 159° (SSE) 2,315 12.8 -10.7°
Sets 02:57:25 0° 169° (S) 3,239 13.5 -10.4°
